{"data":{"norad_id":66066,"intl_designator":"2025-235J","name":"STARLINK-35179","alt_names":[],"object_type":"PAYLOAD","status":"ACTIVE","operator":null,"country":"US","launch_date":"2025-10-19","launch_site_code":"AFETR","launch_vehicle":null,"mission":null,"orbit_class":"UNKNOWN","rcs_meters":null,"size_class":null,"mass_kg":null,"dimensions":null,"purposes":["comms"],"wikipedia_slug":null,"has_3d_model":false,"image_url":null,"decayed_at":null,"tle_current":{"epoch":"2026-05-25T00:16:43.178304Z","epoch_age_seconds":74104,"freshness":"FRESH","line1":"1 66066U 25235J   26145.01161086  .00012399  00000+0  42993-3 0  9995","line2":"2 66066  53.1624 250.9765 0000870  97.9797 262.1302 15.30207825 34606","mean_motion":15.30207825,"eccentricity":8.7e-5,"inclination_deg":53.1624,"raan_deg":250.9765,"arg_perigee_deg":97.9797,"mean_anomaly_deg":262.1302,"bstar":0.00042993,"rev_number":3460,"period_min":94.104864481398,"perigee_km":474.59546588198,"apogee_km":475.78794507673,"semimajor_km":6853.3287054794,"source":"CELESTRAK","updated_at":"2026-05-25T13:38:21.021679Z"}}}